Location: Góry Miechowskie
(50.3599°N, 20.1803°E)
Time: 02:38:08
(UTC+00:00)

Vanguard 2 Rocket - Pass Details

Date: 14 September 2024
Orbit: 553 x 3298 km, 32.9° (Epoch: 14 October)

Event Time Altitude Azimuth Distance (km) Brightness Sun altitude
Exits shadow 22:37:47 12° 114° (ESE) 4,652 10.3 -36.7°
Drops below altitude 10° 22:39:49 10° 107° (ESE) 5,035 10.5 -36.7°
Sets 22:47:16 0° 89° (E) 6,625 11.4 -36.6°
